This is the latest recevied weather packets stored in our database for station/object IW1PPB-3. If no packets are shown the sender has not sent any weather packets the latest 10 day(s).
| Time | Temp. | Humidity | Pressure | Rain* | Wind** | Luminosity | Snow |
|---|---|---|---|---|---|---|---|
| 1777918421 | 18.33° C | 71% | 1016.5 hPa | 0 mm | - | - | - |
| 1777917810 | 18.33° C | 70% | 1016.6 hPa | 0 mm | - | - | - |
| 1777917216 | 18.33° C | 72% | 1016.6 hPa | 0 mm | - | - | - |
| 1777916629 | 18.33° C | 72% | 1016.5 hPa | 0 mm | - | - | - |
| 1777916017 | 18.33° C | 73% | 1016.4 hPa | 0 mm | - | - | - |
| 1777915402 | 18.33° C | 70% | 1016.3 hPa | 0 mm | - | - | - |
| 1777914819 | 18.33° C | 70% | 1016.3 hPa | 0 mm | - | - | - |
| 1777914202 | 18.33° C | 72% | 1016.5 hPa | 0 mm | - | - | - |
| 1777913619 | 18.33° C | 76% | 1016.6 hPa | 0 mm | - | - | - |
| 1777913021 | 18.33° C | 77% | 1016.7 hPa | 0 mm | - | - | - |
| 1777912407 | 18.33° C | 77% | 1016.9 hPa | 0 mm | - | - | - |
| 1777911817 | 18.33° C | 75% | 1016.9 hPa | 0 mm | - | - | - |
| 1777911206 | 18.33° C | 75% | 1016.9 hPa | 0 mm | - | - | - |
| 1777910607 | 18.33° C | 76% | 1017 hPa | 0 mm | - | - | - |
| 1777910004 | 18.33° C | 77% | 1016.9 hPa | 0 mm | - | - | - |
| 1777909415 | 18.33° C | 77% | 1016.9 hPa | 0 mm | - | - | - |
| 1777908820 | 18.33° C | 78% | 1017 hPa | 0 mm | - | - | - |
| 1777908230 | 18.33° C | 78% | 1017.1 hPa | 0 mm | - | - | - |
| 1777907617 | 18.33° C | 78% | 1017 hPa | 0 mm | - | - | - |
| 1777907018 | 18.33° C | 79% | 1017.1 hPa | 0 mm | - | - | - |
| 1777906422 | 18.33° C | 78% | 1017.2 hPa | 0 mm | - | - | - |
| 1777905804 | 18.33° C | 79% | 1017.3 hPa | 0 mm | - | - | - |
| 1777905219 | 18.33° C | 79% | 1017.2 hPa | 0 mm | - | - | - |
| 1777904625 | 18.89° C | 78% | 1017.2 hPa | 0 mm | - | - | - |
| 1777904008 | 18.33° C | 79% | 1017.3 hPa | 0 mm | - | - | - |
* Rain latest hour (hover to see other rain measurements)
** Current wind speed in m/s (hover to see current wind gust speed)